Regional Weather Roundup
Issued by NWS

Home | Current Version | Previous Version | Graphics & Text | Print | Product List | Glossary Off
Versions: 1 2 3 4 5 6 7 8 9 10 11 12 13 14 15 16 17 18 19 20 21 22 23 24 25 26 27 28 29 30 31 32 33 34 35 36 37 38 39 40 41 42 43 44 45 46 47 48 49 50

000
ASUS43 KTOP 080859
RWRKS

WEATHER ROUNDUP FOR KANSAS
NATIONAL WEATHER SERVICE GOODLAND KS
300 AM CST THU DEC 08 2016

NOTE:  "FAIR" INDICATES FEW OR NO CLOUDS BELOW 12,000 FEET WITH NO
SIGNIFICANT WEATHER AND/OR OBSTRUCTIONS TO VISIBILITY.

KSZ001>006-013>018-027>032-041>047-081000-
NORTHWEST KANSAS

CITY           SKY/WX    TMP DP  RH WIND       PRES   REMARKS
GOODLAND       CLOUDY    -2  -8  76 W10       30.52R WCI -19
HAYS             N/A    N/A N/A N/A MISG        N/A
HILL CITY      CLEAR      6  -1  73 NW7       30.61R
RUSSELL        CLEAR     11   5  77 NW8       30.60R
$$

KSZ061>065-074>080-084>089-081000-
SOUTHWEST KANSAS

CITY           SKY/WX    TMP DP  RH WIND       PRES   REMARKS
DODGE CITY     CLEAR      8   4  83 N7        30.58R
ELKHART          N/A     14   0  54 N7          N/A
GARDEN CITY    CLEAR      7   1  76 N8        30.55R
GREAT BEND     CLEAR     13   8  81 NW13      30.60R WCI  -2
LIBERAL        CLOUDY    16   7  67 NW9       30.57R
$$

KSZ066>073-081>083-090>101-081000-
SOUTHEAST KANSAS

CITY           SKY/WX    TMP DP  RH WIND       PRES   REMARKS
CHANUTE        CLEAR     19  11  70 NW12      30.56R WCI   7
COFFEYVILLE    CLEAR     19  14  81 N7        30.58R
HUTCHINSON     CLEAR     17  10  74 N13       30.58R WCI   4
MEDICINE LODGE   N/A     16  11  80 N7        30.60R
NEWTON         CLEAR     16   9  74 NW15      30.57R WCI   1
PARSONS        CLEAR     17  11  77 N7        30.58R
WICHITA INTL   CLEAR     19  12  74 NW10      30.59R WCI   7
WICHITA JABRA  CLEAR     17  12  80 NW10      30.59R WCI   5
WINFIELD       CLEAR     19  13  77 N9        30.60R
$$

KSZ007>012-019>026-033>040-048>060-102>105-081000-
NORTHEAST KANSAS

CITY           SKY/WX    TMP DP  RH WIND       PRES   REMARKS
CONCORDIA      CLEAR     14   4  64 NW18G24   30.57R WCI  -3
EMPORIA        CLEAR     15   9  76 NW9       30.55R
LAWRENCE       CLEAR     17   9  70 W12       30.55R WCI   4
MANHATTAN      CLEAR     17   7  64 VRB3      30.59R
OLATHE IND     CLEAR     18   8  65 NW13G22   30.52R WCI   5
OLATHE EXE     CLEAR     17   7  64 NW13      30.51R WCI   4
SALINA         CLEAR     14   7  73 W9        30.62R
TOPEKA BILLARD CLEAR     17   8  67 W10       30.56R WCI   5
TOPEKA FORBES  CLEAR     19   7  59 NW15      30.54R WCI   5
$$




USA.gov is the U.S. government's official web portal to all federal, state and local government web resources and services.